This demonstration page uses our WeatherBlox Daily Observations layout. Learn more.

Hourly Observations for November 2, 2018

Temp ( °F °C ) Dew Point ( °F °C ) Humidity (%) Winds ( mph kmh ) Pressure ( in mb ) Visibility ( mi km ) Precip ( " mm )
12:15 am 00:15 Clear 42 5.6 34 1 73 73 WNW 8 13 29.91 1013 10 16.09344 0 0
12:35 am 00:35 Clear 41 4.9 33 0.8 75 75 W 9 15 29.91 1013 10 16.09344 0 0
12:55 am 00:55 Clear 41 4.8 34 1.1 77 77 WNW 9 15 29.91 1013 10 16.09344 0 0
1:15 am 01:15 Clear 40 4.5 34 1 78 78 NW 10 17 29.94 1014 10 16.09344 0 0
1:35 am 01:35 Clear 40 4.7 35 1.4 79 79 NW 10 17 29.94 1014 10 16.09344 0 0
1:55 am 01:55 Clear 42 5.5 35 1.5 76 76 NW 12 19 29.91 1013 10 16.09344 0 0
2:15 am 02:15 Clear 40 4.7 34 1.2 78 78 NW 10 17 29.94 1014 10 16.09344 0 0
2:35 am 02:35 Clear 40 4.5 34 1.1 79 79 NW 10 17 29.97 1015 10 16.09344 0 0
2:55 am 02:55 Clear 39 4 34 1 81 81 NW 12 19 29.97 1015 10 16.09344 0 0
3:15 am 03:15 Clear 39 4.1 33 0.7 79 79 NW 10 17 29.97 1015 10 16.09344 0 0
3:35 am 03:35 Clear 40 4.3 33 0.3 75 75 NW 12 19 29.97 1015 10 16.09344 0 0
3:55 am 03:55 Clear 38 3.5 32 0 78 78 NW 13 20 29.97 1015 10 16.09344 0 0
4:15 am 04:15 Clear 38 3.5 32 0 78 78 NW 12 19 29.97 1015 10 16.09344 0 0
4:35 am 04:35 Clear 38 3.4 32 0 79 79 NW 12 19 29.97 1015 10 16.09344 0 0
4:55 am 04:55 Clear 38 3.5 32 0 78 78 WNW 13 20 29.97 1015 10 16.09344 0 0
5:15 am 05:15 Clear 38 3.1 32 0 80 80 WNW 13 20 29.97 1015 10 16.09344 0 0
5:35 am 05:35 Clear 37 2.8 31 -0.3 80 80 NW 14 22 29.97 1015 10 16.09344 0 0
5:55 am 05:55 Clear 37 2.5 31 -0.5 81 81 NW 13 20 29.97 1015 10 16.09344 0 0
6:15 am 06:15 Clear 36 2.2 31 -0.8 81 81 NW 13 20 30 1016 10 16.09344 0 0
6:35 am 06:35 Clear 35 1.8 30 -0.9 82 82 NW 12 19 30.03 1017 10 16.09344 0 0
6:55 am 06:55 Clear 35 1.5 30 -1 84 84 NW 12 19 30.03 1017 10 16.09344 0 0
7:15 am 07:15 Clear 35 1.5 30 -1 84 84 NW 12 19 30.03 1017 10 16.09344 0 0
7:35 am 07:35 Clear 35 1.4 30 -1 84 84 NW 12 19 30.03 1017 10 16.09344 0 0
7:55 am 07:55 Clear 35 1.5 30 -1.1 83 83 NNW 12 19 30.03 1017 10 16.09344 0 0
8:15 am 08:15 Sunny 34 1.2 30 -1.2 84 84 NW 10 17 30.03 1017 10 16.09344 0 0
8:35 am 08:35 Sunny 34 1.1 30 -1.1 85 85 NW 9 15 30.03 1017 10 16.09344 0 0
8:55 am 08:55 Sunny 35 1.5 30 -1 84 84 NNW 8 13 30.03 1017 10 16.09344 0 0
9:15 am 09:15 Sunny 36 2.1 31 -0.5 83 83 WNW 8 13 30.06 1018 10 16.09344 0 0
9:35 am 09:35 Sunny 37 3 32 -0.1 80 80 WNW 9 15 30.03 1017 10 16.09344 0 0
9:55 am 09:55 Sunny 39 3.7 32 0 77 77 NW 12 19 30.03 1017 10 16.09344 0 0
10:15 am 10:15 Sunny 40 4.6 32 0 72 72 NNW 14 22 30.03 1017 10 16.09344 0 0
10:35 am 10:35 Sunny 41 5.1 32 0 70 70 NNW 14 22 30.03 1017 10 16.09344 0 0
10:55 am 10:55 Sunny 42 5.8 33 0.5 69 69 NNW 16 26 30 1016 10 16.09344 0 0
11:15 am 11:15 Sunny 43 6.2 33 0.6 68 68 NNW 14 22 30 1016 10 16.09344 0 0
11:35 am 11:35 Sunny 45 7.2 33 0.6 63 63 N 16 26 30 1016 10 16.09344 0 0
11:55 am 11:55 Partly Cloudy 46 7.5 33 0.5 62 62 NNW 13 20 30 1016 10 16.09344 0 0
12:15 pm 12:15 Mostly Cloudy 47 8.1 32 0 57 57 N 12 19 30 1016 10 16.09344 0 0
12:35 pm 12:35 Mostly Cloudy 47 8.5 32 0.1 56 56 N 13 20 29.97 1015 10 16.09344 0 0
12:55 pm 12:55 Mostly Cloudy 48 8.9 32 0 54 54 N 9 15 29.94 1014 10 16.09344 0 0
1:15 pm 13:15 Mostly Cloudy 47 8.6 32 0 55 55 NNW 10 17 29.94 1014 10 16.09344 0 0
1:35 pm 13:35 Partly Cloudy 48 8.8 32 -0.1 54 54 NNW 10 17 29.94 1014 10 16.09344 0 0
1:55 pm 13:55 Mostly Cloudy 49 9.6 32 0 52 52 NW 12 19 29.91 1013 10 16.09344 0 0
2:15 pm 14:15 Partly Cloudy 49 9.6 31 -0.4 50 50 NW 9 15 29.91 1013 10 16.09344 0 0
2:35 pm 14:35 Mostly Cloudy 48 8.9 30 -0.9 51 51 NNW 8 13 29.91 1013 10 16.09344 0 0
2:55 pm 14:55 Partly Cloudy 49 9.3 31 -0.4 51 51 WNW 8 13 29.88 1012 10 16.09344 0 0
3:15 pm 15:15 Partly Cloudy 49 9.3 31 -0.5 51 51 WNW 9 15 29.88 1012 10 16.09344 0 0
3:35 pm 15:35 Partly Cloudy 49 9.2 31 -0.7 50 50 NNW 7 11 29.88 1012 10 16.09344 0 0
3:55 pm 15:55 Mostly Cloudy 49 9.3 31 -0.5 51 51 W 10 17 29.88 1012 10 16.09344 0 0
4:15 pm 16:15 Mostly Cloudy 49 9.3 31 -0.8 50 50 W 5 7 29.88 1012 10 16.09344 0 0
4:35 pm 16:35 Mostly Cloudy 49 9.2 31 -0.8 50 50 NW 3 6 29.85 1011 10 16.09344 0 0
4:55 pm 16:55 Cloudy 49 9.3 30 -0.9 49 49 WNW 7 11 29.85 1011 10 16.09344 0 0
5:15 pm 17:15 Cloudy 48 9 30 -1 50 50 W 3 6 29.85 1011 10 16.09344 0 0
5:35 pm 17:35 Cloudy 48 9 30 -1.2 49 49 WSW 3 6 29.85 1011 10 16.09344 0 0
5:55 pm 17:55 Cloudy 48 9 29 -1.4 48 48 W 3 6 29.85 1011 10 16.09344 0 0
6:15 pm 18:15 Cloudy 47 8.6 30 -1.3 50 50 Calm 29.83 1010 10 16.09344 0 0
6:35 pm 18:35 Cloudy 47 8.5 30 -1.1 51 51 Calm 29.83 1010 10 16.09344 0 0
6:55 pm 18:55 Cloudy 47 8.2 31 -0.3 55 55 Calm 29.83 1010 10 16.09344 0 0
7:15 pm 19:15 Mostly Cloudy 46 7.6 32 0 59 59 SSE 3 6 29.83 1010 10 16.09344 0 0
7:35 pm 19:35 Mostly Cloudy 44 6.7 32 0.2 64 64 SE 5 7 29.85 1011 10 16.09344 0 0
7:55 pm 19:55 Cloudy 44 6.6 33 0.7 66 66 ESE 6 9 29.85 1011 10 16.09344 0 0
8:15 pm 20:15 Cloudy 45 7 33 0.5 64 64 SE 6 9 29.85 1011 10 16.09344 0 0
8:35 pm 20:35 Cloudy 44 6.8 33 0.6 65 65 SE 7 11 29.83 1010 10 16.09344 0 0
8:55 pm 20:55 Cloudy 44 6.7 34 0.9 67 67 ESE 7 11 29.83 1010 10 16.09344 0 0
9:15 pm 21:15 Cloudy 44 6.9 33 0.7 65 65 ESE 9 15 29.83 1010 10 16.09344 0 0
9:35 pm 21:35 Cloudy 44 6.6 33 0.6 66 66 SE 12 19 29.83 1010 10 16.09344 0 0
9:55 pm 21:55 Cloudy 44 6.5 33 0.7 67 67 SE 12 19 29.83 1010 10 16.09344 0 0
10:15 pm 22:15 Cloudy 44 6.5 33 0.6 66 66 SE 8 13 29.83 1010 10 16.09344 0 0
10:35 pm 22:35 Cloudy with Light Rain 43 6.1 35 1.7 74 74 ESE 8 13 29.83 1010 10 16.09344 0 0
10:55 pm 22:55 Cloudy with Rain 42 5.5 37 2.5 81 81 SE 9 15 29.83 1010 10 16.09344 0 0
11:15 pm 23:15 Cloudy with Light Rain 41 5.1 37 2.5 83 83 SE 12 19 29.83 1010 10 16.09344 0 0
11:35 pm 23:35 Cloudy with Light Rain 41 4.9 37 2.6 85 85 SE 15 24 29.83 1010 10 16.09344 0.01 0.254
11:55 pm 23:55 Cloudy with Light Rain 40 4.5 37 2.8 89 89 SE 18 30 29.8 1009 10 16.09344 0.02 0.508

Powered by AerisWeather